GW4696 Weather Reports


Display with metric or nautical units.
time (UTC)temp
F
wind
direction
speed
MPH
gust
MPH
rain 1hr
in
rain 24hr
in
rain mn
in
humidity
%
barometer
mb
20260507060010 75 316 4.0 8.0 0.00 0.00 0.00 46 1014.7
20260507054517 75 340 1.0 6.0 0.00 0.00 0.00 40 1014.7
20260507053121 76 36 0.0 2.0 0.00 0.00 0.00 38 1014.7
20260507051515 76 83 1.0 2.0 0.00 0.00 0.00 34 1014.7
20260507050026 77 83 0.0 2.0 0.00 0.00 0.00 32 1014.7
20260507044540 78 83 0.0 1.0 0.00 0.00 0.00 31 1014.6
20260507043047 78 83 0.0 2.0 0.00 0.00 0.00 31 1014.6
20260507041554 79 83 0.0 1.0 0.00 0.00 0.00 31 1014.6
20260507040055 79 83 0.0 3.0 0.00 0.00 0.00 30 1014.5
20260507034556 80 116 0.0 3.0 0.00 0.00 0.00 29 1014.2
20260507033053 80 123 0.0 3.0 0.00 0.00 0.00 29 1014.0
20260507031548 81 127 0.0 2.0 0.00 0.00 0.00 29 1013.6
20260507030049 82 127 1.0 4.0 0.00 0.00 0.00 29 1013.4
20260507024558 82 128 1.0 3.0 0.00 0.00 0.00 29 1013.3
20260507023049 83 131 2.0 5.0 0.00 0.00 0.00 28 1013.1
20260507021554 84 118 2.0 8.0 0.00 0.00 0.00 27 1012.9
20260507020115 85 109 3.0 9.0 0.00 0.00 0.00 26 1012.7
20260507014507 86 134 4.0 7.0 0.00 0.00 0.00 25 1012.6
20260507013037 87 126 3.0 11.0 0.00 0.00 0.00 25 1012.5
20260507011517 88 132 3.0 6.0 0.00 0.00 0.00 25 1012.5
20260507010023 89 107 4.0 8.0 0.00 0.00 0.00 24 1012.5
20260507004503 89 94 4.0 9.0 0.00 0.00 0.00 24 1012.5
20260507003000 90 98 5.0 10.0 0.00 0.00 0.00 23 1012.4
20260507001510 91 105 5.0 9.0 0.00 0.00 0.00 23 1012.3
20260507000008 91 115 3.0 7.0 0.00 0.00 0.00 22 1012.2
20260506234517 91 113 2.0 7.0 0.00 0.00 0.00 23 1012.3
20260506233027 91 97 3.0 8.0 0.00 0.00 0.00 23 1012.3
20260506231522 92 107 3.0 9.0 0.00 0.00 0.00 22 1012.4
20260506230015 92 186 2.0 7.0 0.00 0.00 0.00 21 1012.5
20260506224514 91 109 1.0 8.0 0.00 0.00 0.00 22 1012.7
20260506223009 90 128 3.0 9.0 0.00 0.00 0.00 23 1013.0
20260506221508 90 113 2.0 9.0 0.00 0.00 0.00 23 1013.2
20260506220008 90 132 4.0 9.0 0.00 0.00 0.00 23 1013.5
20260506214508 90 120 1.0 5.0 0.00 0.00 0.00 24 1013.8
20260506213113 89 115 3.0 9.0 0.00 0.00 0.00 23 1014.1
20260506211554 89 144 4.0 7.0 0.00 0.00 0.00 24 1014.3
20260506210041 88 115 1.0 7.0 0.00 0.00 0.00 25 1014.5
20260506204538 88 152 1.0 4.0 0.00 0.00 0.00 23 1014.6
20260506203037 86 194 0.0 5.0 0.00 0.00 0.00 23 1014.8
20260506201540 85 149 2.0 5.0 0.00 0.00 0.00 25 1015.1
20260506200033 86 169 2.0 6.0 0.00 0.00 0.00 25 1015.2
20260506194542 85 134 0.0 4.0 0.00 0.00 0.00 27 1015.6
20260506193050 84 157 2.0 7.0 0.00 0.00 0.00 27 1015.8
20260506191555 84 146 2.0 5.0 0.00 0.00 0.00 28 1015.9
20260506190004 83 128 0.0 3.0 0.00 0.00 0.00 28 1016.2
20260506184512 81 194 1.0 5.0 0.00 0.00 0.00 30 1016.4
20260506183027 79 317 0.0 2.0 0.00 0.00 0.00 32 1016.5
20260506181519 79 319 1.0 7.0 0.00 0.00 0.00 32 1016.7
20260506180029 76 343 0.0 2.0 0.00 0.00 0.00 34 1016.7
20260506174525 75 344 0.0 5.0 0.00 0.00 0.00 37 1016.7
20260506173020 74 344 1.0 6.0 0.00 0.00 0.00 39 1016.7
20260506171519 73 272 0.0 4.0 0.00 0.00 0.00 40 1016.8
20260506170019 72 205 0.0 4.0 0.00 0.00 0.00 41 1016.7
20260506164510 71 249 0.0 3.0 0.00 0.00 0.00 44 1016.8
20260506163018 70 258 1.0 2.0 0.00 0.00 0.00 47 1016.9
20260506161527 69 279 1.0 4.0 0.00 0.00 0.00 45 1016.9
20260506160030 68 289 0.0 2.0 0.00 0.00 0.00 48 1016.8
20260506154539 67 300 1.0 4.0 0.00 0.00 0.00 50 1016.6
20260506153041 67 303 1.0 3.0 0.00 0.00 0.00 50 1016.7
20260506151536 66 310 1.0 3.0 0.00 0.00 0.00 51 1016.7
20260506150022 66 312 1.0 3.0 0.00 0.00 0.00 54 1016.7
20260506144520 65 318 0.0 5.0 0.00 0.00 0.00 54 1016.6
20260506143015 63 278 1.0 6.0 0.00 0.00 0.00 56 1016.5
20260506141513 62 262 3.0 8.0 0.00 0.00 0.00 57 1016.3
20260506140015 62 319 2.0 10.0 0.00 0.00 0.00 57 1016.2
20260506134510 61 346 4.0 9.0 0.00 0.00 0.00 57 1016.0
20260506133008 61 334 3.0 10.0 0.00 0.00 0.00 58 1015.8
20260506131505 61 333 3.0 10.0 0.00 0.00 0.00 58 1015.7
20260506130104 61 319 4.0 13.0 0.00 0.00 0.00 58 1015.5
20260506124601 61 360 5.0 13.0 0.00 0.00 0.00 58 1015.5
20260506123004 61 304 6.0 13.0 0.00 0.00 0.00 58 1015.2
20260506121513 61 322 4.0 12.0 0.00 0.00 0.00 58 1015.2
20260506120022 61 341 5.0 12.0 0.00 0.00 0.00 58 1015.0
20260506114531 61 335 5.0 10.0 0.00 0.00 0.00 57 1015.0
20260506113037 62 315 4.0 12.0 0.00 0.00 0.00 56 1015.0
20260506111516 62 290 4.0 14.0 0.00 0.00 0.00 56 1014.9
20260506110016 62 314 5.0 16.0 0.00 0.00 0.00 56 1014.8
20260506104514 62 331 5.0 16.0 0.00 0.00 0.00 56 1014.8
20260506103014 62 331 6.0 16.0 0.00 0.00 0.00 56 1014.8
20260506101521 62 302 6.0 14.0 0.00 0.00 0.00 56 1014.7
20260506100028 62 344 3.0 10.0 0.00 0.00 0.00 56 1014.7
20260506094539 62 318 4.0 12.0 0.00 0.00 0.00 55 1014.5
20260506093048 63 322 5.0 15.0 0.00 0.00 0.00 56 1014.7
20260506091553 63 297 5.0 13.0 0.00 0.00 0.00 54 1014.8
20260506090051 63 336 5.0 12.0 0.00 0.00 0.00 53 1014.8
20260506084547 64 335 4.0 10.0 0.00 0.00 0.00 52 1014.8
20260506083052 64 346 4.0 13.0 0.00 0.00 0.00 51 1014.9
20260506081554 64 336 4.0 10.0 0.00 0.00 0.00 51 1014.9
20260506073045 65 348 6.0 9.0 0.00 0.00 0.00 48 1014.7
20260506071535 65 344 4.0 10.0 0.00 0.00 0.00 48 1014.7
20260506061544 66 334 4.0 10.0 0.00 0.00 0.00 47 1014.1